Wind_Speed
21 17 11 7 4 6 16 29 34 34 36 38 35 28 25 21 15 15 18 13 9 15 18 19 20 17 18 22 21 18 17 13 14 18 20 25 31 31 32 32 30 30 28 24 25 26 22 19 20 20 18 18 17 16 16 18 21 25 28 29 31 31 30 28 28 27 25 24 25 25 25 26 26 26 26 25 26 26 26 26 25 26 27 28 28 28 29
23 20 18 14 11 9 11 20 33 34 33 36 36 30 25 23 18 15 17 13 10 17 19 19 21 18 18 23 20 15 16 16 18 19 16 16 21 22 22 23 24 27 27 25 24 22 22 23 21 20 20 18 16 14 13 14 16 21 25 27 30 32 31 30 30 30 28 26 26 25 25 26 25 25 25 24 25 25 26 25 25 25 26 27 28 28 28
22 23 23 18 14 13 14 14 23 33 33 34 36 32 27 25 20 18 20 16 14 18 18 22 28 21 20 26 19 13 18 17 17 19 15 11 14 15 15 17 19 21 21 20 19 18 18 19 18 18 19 18 16 15 13 13 13 17 21 23 26 28 30 31 32 32 32 30 29 28 27 26 26 25 24 24 24 25 25 25 24 24 24 25 26 27 26
18 19 22 20 13 11 16 17 17 25 27 30 35 33 29 28 23 20 23 22 20 19 19 27 31 20 18 25 18 13 16 14 13 16 11 9 15 14 10 13 16 20 21 19 17 16 16 16 17 18 18 18 18 16 15 15 14 15 17 19 21 24 27 30 31 32 33 33 32 31 29 28 28 26 26 26 26 26 26 26 26 25 24 24 24 26 26
20 18 19 21 13 8 16 19 15 15 16 23 33 35 31 28 26 23 22 23 23 19 20 25 23 12 12 17 13 9 11 10 11 12 7 7 12 11 9 11 14 18 20 15 12 14 15 17 18 18 19 19 19 18 17 18 17 15 16 17 18 19 21 24 26 28 32 34 34 34 32 30 29 29 29 29 28 28 27 28 28 28 27 26 26 26 27
19 19 18 20 15 11 14 18 16 12 11 15 23 30 33 30 28 26 22 26 25 14 15 18 14 9 9 11 10 10 10 9 9 9 6 6 8 8 9 11 13 15 15 13 14 15 16 16 16 16 19 19 19 19 19 20 20 18 16 16 17 16 16 17 19 23 27 30 33 35 34 33 32 31 31 31 30 30 30 30 31 30 29 29 28 28 28
14 18 20 16 14 16 14 13 18 17 12 11 8 15 32 36 29 23 22 27 26 11 7 11 11 9 10 10 11 12 10 10 11 10 6 4 4 4 6 11 16 18 17 18 19 20 19 18 15 15 19 21 21 21 21 20 21 20 18 17 16 15 14 14 16 18 21 24 29 33 35 35 34 33 33 32 32 32 32 32 31 31 30 30 29 29 29
10 17 22 14 10 17 17 14 22 21 15 14 9 5 19 27 21 16 17 21 22 14 8 9 11 12 11 10 12 13 11 9 7 6 5 5 5 6 9 15 19 20 19 18 18 19 20 19 16 15 18 20 21 21 21 21 22 21 20 18 16 15 15 14 15 17 19 20 23 28 32 35 35 35 34 34 34 33 34 34 33 32 32 31 30 30 30
8 11 20 18 11 14 18 19 25 24 18 17 12 6 10 14 12 14 15 15 16 15 12 10 10 13 12 8 7 9 9 6 4 6 9 11 14 15 15 18 19 19 21 19 17 19 20 18 16 17 17 18 19 21 22 22 22 22 22 19 17 16 16 16 16 17 19 20 21 23 27 30 33 34 34 35 35 34 35 35 34 34 33 33 32 32 32
9 9 13 17 13 11 16 19 21 22 19 14 8 8 11 10 10 13 13 13 15 15 15 14 10 10 11 8 4 5 10 12 12 15 17 18 18 17 16 17 18 18 18 18 19 21 22 20 18 18 18 19 20 21 23 23 23 23 23 21 18 17 17 18 19 19 19 21 21 22 24 27 30 32 34 35 35 35 36 36 35 35 34 34 34 34 34
12 11 10 11 14 12 11 17 22 22 18 13 7 8 12 12 12 14 14 17 18 14 12 12 9 8 11 8 5 10 15 17 18 19 20 20 20 17 16 18 18 17 16 18 19 21 23 22 20 18 18 19 20 21 22 23 24 24 23 22 20 19 18 19 19 20 21 22 22 23 24 26 28 29 32 33 34 35 36 36 36 37 36 35 34 34 35
12 12 12 10 11 5 2 7 21 22 19 21 15 8 8 12 15 17 14 13 16 14 13 13 11 11 11 9 12 16 16 18 22 21 20 20 21 20 20 20 19 17 19 20 20 21 23 23 21 21 20 19 20 21 21 22 23 23 23 24 23 21 20 19 19 19 19 22 24 24 24 25 27 29 31 32 33 34 35 35 36 37 37 36 35 35 36
13 12 16 12 6 7 7 5 11 17 22 26 21 11 9 12 17 18 13 10 13 17 16 16 14 14 16 20 21 20 18 20 24 23 21 20 19 19 21 21 20 19 20 21 21 21 23 23 24 24 22 21 21 21 22 22 21 21 23 25 25 24 22 21 20 19 19 20 23 26 27 27 28 30 31 31 32 33 34 34 35 36 37 38 38 37 37
15 12 16 13 3 8 7 6 9 16 19 15 12 13 12 10 19 21 13 7 13 17 15 18 20 21 24 27 27 26 24 24 25 24 24 23 21 19 19 20 21 21 20 21 22 22 23 24 25 25 24 24 23 23 24 24 21 21 24 25 25 25 24 23 22 21 20 20 21 25 29 31 32 32 32 32 33 34 34 35 36 37 38 39 40 40 40
18 14 15 11 1 6 8 9 11 14 12 9 11 15 12 9 20 26 18 10 13 16 17 20 23 24 26 27 27 27 28 29 29 28 27 25 23 21 19 21 22 21 20 22 22 23 23 23 23 25 26 25 25 25 26 27 25 23 23 24 25 24 24 24 24 24 23 22 21 23 27 32 35 35 35 36 36 36 37 37 38 38 39 40 41 42 43
19 17 12 7 3 5 5 4 7 7 7 8 8 12 13 13 17 24 23 19 16 15 16 17 16 18 22 25 24 23 25 28 30 31 30 28 27 25 23 23 23 22 22 24 24 23 23 22 22 25 26 26 26 27 28 28 28 27 25 24 24 24 24 24 24 25 26 25 24 23 25 30 36 39 40 39 39 39 39 40 40 41 41 42 43 44 45
19 17 9 5 7 6 1 1 6 9 10 8 4 8 14 15 16 20 23 21 17 14 14 13 13 16 19 20 20 21 23 25 26 28 29 28 28 28 26 26 25 24 24 25 24 24 23 22 22 24 26 27 27 26 27 29 29 29 28 26 24 24 24 24 23 24 26 26 26 25 24 27 32 37 42 43 42 42 42 42 42 43 43 44 45 45 46
17 21 16 12 10 4 5 11 13 13 12 7 3 10 17 18 18 19 18 16 15 12 10 9 12 15 16 16 17 18 19 21 23 24 25 26 28 28 27 27 26 25 25 25 25 25 24 23 22 23 26 28 27 26 27 28 28 29 29 28 26 24 24 24 23 23 24 25 26 26 25 26 28 32 38 43 45 45 44 44 44 45 45 46 47 47 48
12 18 18 16 13 6 7 13 17 16 13 8 10 17 20 18 17 15 13 13 12 10 8 7 9 11 12 13 14 14 15 17 18 19 21 23 25 25 26 25 25 25 26 26 25 25 26 25 23 22 25 27 28 27 27 26 26 27 28 28 27 25 24 24 23 22 21 22 23 24 24 25 25 27 32 39 44 46 46 45 45 45 46 46 46 46 46
14 16 16 16 14 10 6 13 20 21 17 15 19 24 23 21 19 17 15 15 14 13 11 10 9 10 11 11 11 11 11 11 13 14 16 18 19 21 22 23 23 24 25 26 26 25 26 26 25 23 24 26 28 28 27 25 25 25 26 27 27 26 25 24 24 23 22 20 20 21 21 22 23 24 26 31 37 41 43 43 42 42 42 41 40 40 40
15 17 19 19 19 17 14 16 20 23 23 24 28 30 28 26 25 22 20 19 19 18 17 16 14 13 13 12 12 12 11 11 11 12 12 13 15 17 18 20 21 21 22 25 26 25 24 24 26 25 24 25 28 29 28 25 24 25 25 27 27 27 27 26 25 25 23 22 21 21 21 22 22 22 23 25 27 31 33 33 33 32 32 32 32 32 32
15 15 16 17 18 18 17 16 17 20 25 29 33 34 33 31 30 28 26 24 23 23 21 20 19 18 16 14 13 13 14 14 14 14 13 14 15 16 16 17 18 18 19 22 25 25 24 24 25 26 25 26 28 29 29 26 25 24 24 25 26 27 27 27 27 26 25 25 24 23 23 24 24 24 24 24 24 25 26 26 26 25 26 26 25 26 27
19 17 17 17 17 17 17 17 18 21 24 28 34 39 39 35 34 33 31 30 29 27 24 22 21 21 20 19 17 16 16 17 18 18 18 19 20 20 20 20 19 19 19 21 22 23 23 23 24 25 26 27 28 29 29 27 26 25 24 25 26 26 27 27 27 26 26 25 25 24 25 26 26 25 26 26 26 26 25 25 24 24 24 23 23 24 25
24 23 22 22 22 22 21 21 23 26 27 29 35 42 43 40 38 37 36 35 34 32 30 28 26 26 25 24 23 22 21 21 22 22 22 23 24 25 25 24 24 24 23 22 22 22 22 23 24 25 26 27 27 27 28 27 26 24 24 25 26 26 25 25 25 24 24 24 24 23 24 24 24 25 25 24 24 24 23 23 23 23 24 24 25 25 26
25 26 27 28 29 30 29 27 29 32 33 34 38 41 43 42 42 42 42 42 42 41 41 38 35 34 32 30 29 29 29 28 27 27 26 26 26 27 27 28 28 27 26 25 24 23 23 23 23 24 26 26 26 27 26 25 23 22 22 24 25 24 24 24 23 23 24 24 24 23 23 23 23 23 24 24 24 23 22 22 23 24 25 26 27 28 29
25 26 28 31 35 36 34 33 33 34 34 34 36 40 43 44 43 44 46 47 47 47 47 45 42 40 39 37 35 34 33 32 31 30 29 28 26 26 26 26 25 25 26 27 27 25 24 23 22 23 25 26 27 27 25 22 21 21 22 23 24 23 23 23 23 24 24 24 24 24 24 24 24 23 23 24 25 24 24 24 25 26 26 27 29 30 31
28 27 26 28 32 36 37 38 38 36 34 32 32 35 40 43 45 46 46 45 45 45 44 44 42 40 39 39 37 35 34 33 31 29 27 27 26 24 22 20 19 20 24 28 28 26 24 23 23 23 24 25 26 25 23 22 22 23 24 24 24 23 23 24 24 25 25 25 25 25 25 25 25 25 25 25 26 26 27 27 27 28 28 29 30 30 30
34 32 30 30 32 33 35 36 36 37 37 36 33 32 35 39 44 47 46 43 42 42 40 39 38 36 35 35 35 34 34 32 29 25 22 21 20 19 18 17 16 17 21 26 28 26 24 23 23 23 23 24 25 25 24 24 24 25 25 25 24 24 24 24 25 26 26 27 27 27 27 27 27 27 27 27 27 28 28 28 29 29 29 30 30 29 30
40 39 37 37 37 35 34 34 33 33 34 32 28 27 30 34 39 45 46 43 42 42 40 38 38 37 37 36 36 36 34 28 25 25 24 20 18 18 17 18 19 19 20 23 24 23 22 21 23 24 24 24 24 24 24 24 24 25 25 25 24 24 24 25 26 26 27 28 28 28 28 28 29 28 28 28 28 28 28 28 28 29 30 30 30 31 32
37 40 42 42 40 39 38 38 36 35 35 32 28 27 29 31 34 41 43 43 43 43 41 40 40 40 39 37 36 35 31 26 24 27 26 22 21 20 18 18 20 21 21 21 20 19 19 20 23 24 24 23 23 23 23 24 23 23 24 25 25 25 25 26 26 26 27 27 28 28 28 28 28 28 27 27 27 27 28 28 28 29 30 31 31 33 34
27 33 39 43 44 43 42 42 40 39 38 38 36 34 33 32 33 37 39 42 44 44 41 38 37 37 36 34 32 29 28 25 25 26 26 25 25 24 23 23 23 22 21 20 19 18 19 20 22 22 23 23 23 23 23 23 23 24 25 26 26 27 27 27 27 27 28 28 28 27 27 27 27 27 26 25 25 26 27 28 29 30 31 32 32 34 35
21 26 31 37 42 44 45 45 44 42 42 42 41 39 36 35 34 35 37 41 44 42 38 35 34 34 33 32 28 26 26 26 26 26 28 28 27 26 26 27 27 25 22 21 20 20 20 21 22 22 23 23 23 23 23 23 23 24 25 26 26 27 27 27 28 29 29 28 27 26 26 26 27 26 25 24 25 26 27 28 29 31 33 33 32 33 34
19 22 25 28 33 39 42 43 42 42 42 41 40 38 36 34 32 33 36 39 42 40 36 34 33 32 32 30 27 25 24 25 27 29 30 29 28 26 25 26 26 25 23 22 21 21 21 21 22 23 23 23 22 23 23 23 23 24 24 25 25 25 26 26 26 26 26 25 25 25 25 26 26 25 24 24 25 26 26 27 28 29 32 32 31 31 32
16 17 18 19 22 27 32 35 36 37 38 38 37 37 35 31 30 31 34 38 40 40 35 32 31 31 29 28 27 25 22 21 25 29 30 31 31 30 28 28 27 24 22 22 22 22 21 21 21 22 22 22 21 21 22 23 23 23 23 24 24 24 24 24 23 23 24 23 23 23 23 24 23 23 23 23 24 25 25 26 26 28 29 30 29 29 29
12 13 13 15 17 19 22 26 28 30 31 32 33 34 34 31 28 29 33 38 40 38 33 30 31 30 27 25 26 26 22 19 21 23 24 26 30 33 32 30 27 23 21 22 23 22 22 22 21 20 20 19 19 20 21 22 23 24 25 25 25 24 24 23 23 23 23 22 21 21 22 22 21 21 21 23 24 24 25 24 24 24 25 26 27 26 27
7 6 5 8 13 16 18 21 23 24 23 22 23 27 29 29 28 29 32 37 38 35 32 32 30 26 24 25 26 26 24 23 21 19 18 19 22 26 28 28 25 23 23 23 23 22 21 21 19 19 18 18 18 19 20 21 22 23 24 25 25 24 23 21 21 21 21 20 20 20 21 21 21 21 22 24 25 25 25 24 23 23 24 25 26 26 26
11 6 3 0 5 10 16 19 21 22 21 18 17 19 23 26 28 30 32 35 37 35 34 33 30 24 23 26 27 25 24 25 24 20 16 15 16 18 20 22 23 23 22 21 20 20 19 18 18 18 18 18 18 19 19 19 20 20 21 23 22 21 19 19 19 19 19 19 20 20 21 22 23 23 24 25 25 25 25 24 23 23 24 25 25 25 25
12 11 8 6 4 2 7 13 17 19 20 19 16 15 18 23 25 27 29 33 36 36 35 32 27 23 23 24 25 24 24 24 23 20 17 15 14 14 15 17 19 19 19 18 18 18 18 17 18 18 17 18 18 18 18 19 19 19 20 21 21 20 19 19 19 19 20 20 21 22 22 23 24 24 24 25 25 24 24 23 23 24 24 24 24 24 24
8 8 8 8 8 8 3 6 12 15 17 19 19 19 20 21 23 24 27 30 33 35 35 31 25 21 21 21 22 23 24 24 23 21 18 16 15 14 13 14 15 16 17 17 17 17 17 16 16 16 16 16 17 17 17 18 18 18 19 20 20 20 19 19 19 20 20 21 21 22 23 23 24 24 24 24 24 24 23 23 24 24 25 25 25 25 25
21 14 8 5 6 10 10 7 10 14 15 16 20 22 22 23 25 27 26 27 29 31 31 29 25 23 22 21 22 25 26 24 23 22 20 17 16 15 14 14 15 15 15 16 16 16 16 15 15 15 15 15 16 16 17 17 17 17 18 18 19 19 18 18 18 19 19 20 21 22 22 23 23 23 23 23 23 23 23 23 23 24 25 25 25 25 25
38 31 23 13 9 10 10 9 12 16 15 14 19 24 24 25 29 28 25 26 30 31 29 26 25 24 24 24 25 26 25 24 22 22 20 19 18 17 16 15 15 15 15 15 15 15 15 15 15 14 14 14 15 15 15 16 16 16 16 16 16 16 16 16 17 17 18 18 19 19 20 20 20 19 19 20 20 20 21 21 21 21 22 22 22 22 22
41 40 36 31 27 24 18 14 16 20 17 14 19 25 25 25 30 31 27 26 29 29 27 25 25 23 23 23 23 23 23 22 22 22 21 20 19 18 17 16 16 16 16 15 14 14 13 13 13 13 13 13 13 13 13 14 14 14 14 15 15 15 15 15 15 15 15 15 16 16 16 16 16 16 17 17 17 18 18 19 19 19 19 19 19 19 19
38 38 37 37 37 34 30 29 30 29 24 20 23 25 24 22 24 27 28 30 30 27 26 26 26 25 24 24 23 23 24 24 24 23 23 22 21 19 18 18 18 18 17 17 16 15 14 13 13 12 12 12 12 12 12 13 13 13 14 14 14 14 14 13 13 14 14 14 14 14 15 15 15 15 16 16 16 16 16 16 16 16 15 16 16 15 14
35 35 35 34 35 34 33 36 37 35 33 32 31 28 26 25 26 27 32 36 35 31 29 30 31 29 28 25 24 25 27 27 27 26 26 26 24 23 21 20 20 20 19 18 17 17 16 16 15 14 14 13 13 13 13 12 13 13 13 13 13 13 13 13 13 13 13 14 14 14 14 14 14 14 14 14 14 14 14 14 14 13 12 11 11 10 10
30 32 32 32 32 31 31 33 35 34 34 36 35 32 30 32 34 33 33 35 34 32 32 34 35 34 32 30 30 30 31 31 30 30 29 28 27 25 24 22 22 20 19 18 18 17 17 17 16 15 15 14 13 13 12 12 12 12 12 12 12 13 12 13 13 12 13 13 13 13 13 13 13 13 13 12 12 12 12 12 12 12 11 10 10 9 10
25 26 27 28 29 29 28 28 28 28 29 31 33 32 30 29 29 28 28 30 31 31 31 30 30 30 31 31 32 32 33 33 32 30 28 26 25 23 21 21 20 19 18 17 16 16 15 15 14 14 13 13 13 12 12 12 12 13 13 13 13 13 13 13 13 13 13 13 13 13 13 13 13 13 13 12 12 12 12 12 11 11 11 10 10 10 10
20 22 23 24 25 25 25 24 23 22 23 25 28 29 26 24 23 23 23 24 25 25 24 23 22 22 22 22 22 23 23 23 23 22 20 18 17 16 15 16 15 14 13 12 12 12 11 11 10 10 11 11 11 12 12 12 13 13 13 13 13 13 14 14 14 14 14 14 14 14 14 13 13 13 13 13 14 13 13 13 12 11 11 11 11 11 11
16 18 19 20 20 20 20 20 20 20 21 22 22 23 22 20 20 19 19 18 18 18 18 18 17 17 16 15 15 15 15 14 13 12 12 11 10 10 10 10 9 8 8 8 8 9 9 9 9 9 10 10 11 11 11 12 12 12 12 12 13 13 13 13 14 14 14 14 14 14 14 14 14 15 15 15 15 15 14 14 14 13 13 13 12 12 12
13 13 13 14 15 15 16 17 17 18 19 18 18 18 18 17 16 16 16 15 15 14 13 13 13 13 13 13 13 12 12 11 10 9 8 8 7 7 6 6 6 7 7 8 8 9 9 9 9 10 10 10 11 11 11 11 11 12 12 12 12 13 13 13 13 14 14 14 14 15 15 15 16 17 17 17 17 16 16 17 17 17 16 16 14 14 13
10 10 10 10 10 11 12 13 14 15 15 15 14 15 15 14 13 13 13 13 12 11 11 11 10 10 10 10 9 9 9 8 7 6 5 4 3 3 2 3 4 6 7 8 9 9 10 10 10 11 11 11 11 11 11 12 12 12 12 13 13 13 14 14 14 14 15 15 15 16 16 16 16 18 19 19 18 18 18 19 19 20 20 18 17 16 16
9 9 9 9 9 9 9 10 11 11 11 11 11 11 11 11 11 11 10 10 10 9 9 9 8 8 7 6 6 5 5 5 4 3 2 2 1 1 1 2 4 5 7 8 8 9 9 10 10 11 11 11 11 11 12 12 12 13 13 14 14 14 15 15 15 15 16 17 16 16 16 16 17 18 19 20 20 20 20 21 21 22 22 21 20 19 19
15 13 10 8 7 8 8 8 8 8 8 8 8 9 8 8 7 7 7 7 6 5 5 5 5 5 4 4 4 3 3 2 2 2 2 2 3 4 4 5 6 7 8 8 8 8 9 9 10 10 11 11 11 12 12 12 12 13 13 14 14 15 16 16 16 16 17 18 18 17 17 18 18 18 20 21 21 20 20 21 23 23 23 23 23 23 23
Wind_Direction
239 233 242 275 289 243 218 212 207 202 201 204 208 206 198 193 194 185 178 175 164 155 151 149 147 142 149 154 147 144 147 139 141 157 167 170 170 172 180 189 197 202 208 217 219 216 216 220 218 214 217 219 218 225 232 231 229 229 230 231 230 232 232 227 223 223 220 217 216 216 217 217 220 223 224 226 230 235 237 238 238 240 245 250 252 253 255
244 241 241 250 258 281 279 229 209 202 200 203 207 208 201 195 197 189 174 164 150 150 151 152 147 137 140 146 137 135 143 133 133 141 143 160 178 185 190 195 199 204 210 213 209 206 210 217 215 205 208 213 211 215 224 229 229 229 232 235 234 235 237 234 229 226 224 223 220 217 218 217 217 220 223 226 230 235 240 243 242 241 244 249 254 255 256
251 246 237 238 243 260 287 267 215 202 202 202 204 208 205 197 196 192 181 168 155 159 160 157 156 144 132 138 131 125 138 129 124 136 133 136 168 193 204 196 192 195 196 189 183 184 192 197 193 191 199 206 208 213 220 227 231 230 233 239 240 240 241 241 237 232 228 227 224 221 221 221 220 219 222 227 231 235 240 244 246 246 244 245 251 255 256
256 246 228 224 230 249 273 273 226 204 205 203 201 204 206 200 195 191 186 175 162 165 169 163 162 157 139 138 126 107 129 132 130 142 145 141 148 156 173 182 183 180 172 167 169 173 173 172 174 181 189 197 205 212 222 230 236 236 237 243 247 246 245 245 244 240 234 230 228 226 224 224 224 224 224 227 232 236 240 243 247 250 249 247 249 254 258
250 243 230 221 217 242 259 250 220 207 222 215 202 201 206 204 197 194 190 179 167 157 155 159 162 158 145 146 137 122 135 146 150 149 141 142 150 151 156 166 171 173 172 177 188 188 185 183 183 185 190 195 201 207 217 231 240 244 243 244 248 249 249 250 251 248 241 235 232 231 228 226 227 229 229 230 232 236 240 244 248 251 252 252 253 255 259
251 248 243 228 214 217 238 232 214 216 239 224 203 199 204 204 200 201 193 181 178 157 132 151 163 153 150 157 157 158 156 150 152 155 145 143 161 176 180 171 172 181 186 196 212 213 203 194 194 200 201 200 202 206 215 228 238 246 249 247 246 246 249 252 253 253 249 242 237 234 233 231 230 231 232 233 235 238 241 245 247 250 252 255 257 258 260
252 236 230 228 220 216 224 228 219 224 237 231 223 207 202 199 198 199 187 180 187 189 140 157 170 161 162 163 150 149 156 157 157 160 166 181 191 203 213 201 197 198 188 183 197 209 203 195 198 209 210 207 207 210 216 225 234 243 249 250 246 243 245 249 248 249 249 246 241 237 235 234 233 233 235 236 237 240 242 245 248 250 253 256 258 260 261
241 220 215 221 232 219 221 226 215 216 224 225 245 239 191 187 182 173 167 172 183 188 171 161 168 167 160 158 162 162 162 168 176 178 188 219 216 211 223 216 211 213 207 197 200 206 205 203 205 211 215 216 215 215 217 223 231 239 246 250 246 240 243 248 246 243 243 241 239 237 236 235 235 235 236 237 239 241 242 245 248 250 252 254 257 259 261
238 227 217 216 227 217 216 222 214 209 215 223 242 246 173 169 170 165 165 177 188 197 199 183 173 174 162 146 171 186 183 191 208 195 199 215 210 202 207 211 212 217 220 222 223 218 217 220 220 219 219 217 219 220 220 222 228 235 241 247 246 239 241 247 247 244 240 235 232 231 232 233 235 236 237 238 240 241 243 245 248 250 252 254 256 259 261
259 265 234 217 217 210 212 222 215 206 209 218 238 224 193 186 190 183 184 196 194 189 188 181 173 179 172 147 132 191 204 212 207 194 198 209 208 205 211 220 223 222 220 221 220 218 222 226 225 225 225 221 222 224 224 224 226 230 236 243 245 241 239 244 249 248 245 239 233 226 224 226 230 233 236 238 239 241 243 245 247 250 252 254 255 258 260
265 267 264 225 207 208 223 225 213 205 201 196 191 198 189 178 180 188 198 208 199 173 159 169 173 171 165 155 180 208 208 213 218 214 214 217 215 215 223 228 229 230 227 221 214 214 221 224 225 227 229 228 229 229 229 230 227 227 230 235 240 242 241 244 251 254 251 246 241 233 227 226 227 229 233 236 238 240 242 244 246 248 251 253 255 256 258
262 259 258 229 191 172 38 204 205 206 197 193 201 210 180 164 171 176 173 182 192 190 191 197 185 163 164 188 220 222 215 221 232 234 231 230 229 229 234 235 231 231 230 224 218 219 223 225 228 231 229 230 233 233 233 234 232 230 229 229 234 239 240 243 248 254 254 251 247 242 237 233 232 232 234 235 237 239 241 242 244 246 249 252 255 257 258
254 258 248 228 155 101 77 121 185 192 190 198 208 199 169 170 175 165 138 132 176 190 197 199 184 174 190 207 218 222 222 230 240 243 241 239 237 234 238 239 233 229 228 225 223 225 225 225 228 231 231 232 233 234 235 235 235 234 232 230 231 234 236 240 244 249 255 254 250 246 243 240 238 237 238 239 239 241 242 243 245 246 248 251 254 257 260
248 257 244 235 120 109 145 144 154 168 171 181 185 161 146 167 179 167 137 131 187 191 191 199 201 203 211 218 224 228 233 237 243 246 244 244 243 239 240 242 235 228 227 227 226 226 227 227 227 229 232 234 235 237 238 236 235 235 235 234 233 232 234 239 244 247 252 255 254 249 244 243 242 241 241 242 243 244 245 246 247 247 249 251 253 256 260
242 250 239 238 33 100 149 164 169 171 150 126 152 160 139 144 178 176 164 168 196 200 204 211 216 218 223 230 232 235 239 240 240 241 243 244 244 240 241 243 238 230 228 230 228 227 227 227 228 228 230 232 236 239 240 239 237 237 236 235 234 234 235 239 244 247 249 254 257 254 249 246 244 243 243 244 245 247 248 249 250 251 252 253 254 256 259
227 238 237 235 188 108 101 130 155 166 147 126 156 177 156 141 167 177 178 186 195 198 206 216 218 216 222 229 230 231 235 236 235 238 241 243 245 244 244 245 239 232 232 232 229 228 228 227 229 230 229 229 233 236 240 242 241 239 238 235 233 234 236 238 242 246 250 254 257 257 255 250 246 244 244 245 246 248 250 251 253 253 255 256 257 258 259
217 229 248 248 192 153 73 196 157 165 179 165 161 197 178 160 164 175 182 190 193 196 209 216 208 207 218 229 232 231 233 233 233 235 237 241 243 244 244 243 238 233 235 234 230 229 229 228 230 232 230 229 232 236 239 242 242 240 239 237 234 233 234 236 239 243 248 253 255 256 257 255 252 248 245 245 247 248 250 252 254 255 256 257 259 260 261
222 224 233 240 227 225 263 230 202 189 193 189 217 222 201 179 172 178 185 191 191 198 214 213 201 204 212 219 222 224 226 228 232 234 235 238 241 242 244 243 238 235 236 235 232 231 230 230 232 234 233 231 232 235 238 238 238 237 237 238 237 234 232 233 235 238 242 246 250 253 254 254 256 253 249 247 248 249 251 253 254 256 257 258 260 263 264
248 230 227 232 237 260 285 254 231 214 210 225 238 228 214 198 187 187 193 200 207 220 230 222 217 221 221 217 215 214 214 218 224 228 232 237 241 243 246 245 242 239 237 236 233 232 231 233 235 238 237 233 230 233 235 236 235 234 233 235 236 236 234 234 233 234 237 240 243 247 249 251 254 256 253 251 250 250 252 255 257 259 260 262 264 266 268
263 250 246 247 241 227 243 260 243 223 220 240 241 231 223 217 214 213 214 220 236 250 251 249 248 246 245 242 235 227 222 221 222 225 232 238 241 244 246 246 245 244 242 240 238 235 234 236 238 240 242 237 231 230 231 233 234 233 232 232 234 235 236 237 236 236 237 239 242 244 247 249 253 255 256 254 253 254 256 258 260 262 264 265 267 268 268
265 257 258 263 257 242 239 253 249 235 233 240 239 236 234 231 227 227 229 237 249 257 263 269 266 257 257 259 256 252 248 242 238 240 245 248 248 248 249 247 246 248 247 244 242 240 240 241 240 241 243 242 235 229 227 227 229 231 232 233 233 235 236 238 238 239 238 239 242 244 247 248 250 253 255 255 255 255 256 257 259 261 263 264 266 267 269
264 258 256 262 267 262 252 248 248 245 242 240 237 236 238 238 235 232 232 238 248 258 266 272 269 264 263 260 254 254 255 254 253 253 257 261 262 261 259 255 251 250 249 247 245 245 246 246 244 242 243 242 238 231 226 226 227 229 230 232 233 234 236 237 239 240 240 241 241 243 244 245 245 246 247 248 249 251 251 253 255 257 259 262 265 267 269
258 253 249 253 265 267 252 240 244 248 246 243 238 232 231 235 239 239 238 240 246 254 261 263 264 265 265 262 257 253 253 258 262 263 265 268 270 270 269 265 260 254 250 248 246 247 249 249 247 245 243 242 239 234 228 227 228 229 229 231 232 233 235 237 239 240 242 244 244 244 246 247 248 248 247 246 246 248 251 253 255 257 260 262 264 266 267
257 247 237 236 246 251 244 239 244 244 241 242 239 232 227 230 237 243 246 247 249 252 253 254 258 262 264 265 265 261 259 260 264 268 272 271 268 266 267 267 265 261 258 253 250 250 252 252 250 247 244 243 241 236 232 230 231 233 233 233 234 234 235 238 240 241 243 246 246 246 247 248 250 250 250 250 250 250 253 256 257 259 262 264 266 268 270
261 257 247 238 237 240 238 235 237 236 234 237 241 238 234 233 236 242 247 248 249 251 251 252 255 260 262 264 266 267 268 267 267 270 274 273 267 262 261 262 263 263 262 259 256 254 254 255 254 252 247 244 241 238 236 234 236 239 241 240 239 238 238 240 242 242 243 244 244 244 244 243 244 245 247 250 252 253 255 257 258 261 265 267 270 272 273
249 254 254 248 242 240 238 238 239 240 239 239 241 241 240 238 237 238 241 242 244 247 250 251 253 255 258 261 263 265 267 269 269 269 270 269 266 262 260 261 261 260 259 259 259 258 256 257 257 254 250 246 243 240 239 239 242 245 245 244 243 242 241 242 242 242 243 243 242 241 241 241 242 244 247 250 253 255 257 258 261 264 267 269 272 273 275
241 240 246 252 249 244 240 241 244 247 248 248 246 243 240 239 238 236 235 236 237 239 242 246 248 249 250 253 256 258 259 261 263 263 263 263 263 263 261 259 255 254 256 256 255 256 256 256 256 254 251 248 246 244 242 243 246 246 245 245 244 243 241 241 241 241 242 242 242 242 242 243 245 246 248 251 253 256 258 259 262 265 267 269 271 274 277
240 236 237 243 246 245 243 242 243 247 249 249 249 245 240 239 239 237 234 231 230 231 233 235 238 239 239 241 244 247 248 250 253 252 250 252 256 258 257 253 247 246 252 255 254 252 253 255 256 255 252 250 249 247 246 246 248 249 250 250 249 246 243 241 240 240 241 242 243 244 245 246 247 248 250 251 253 256 258 260 263 266 268 270 273 277 280
243 241 240 240 242 244 244 243 242 244 244 245 245 243 239 238 238 236 232 228 224 224 225 226 228 231 231 230 232 235 236 240 245 242 235 235 242 248 249 249 247 245 249 255 255 251 250 253 255 253 251 251 251 251 250 250 250 251 250 249 246 244 241 239 238 239 240 241 242 242 243 245 246 247 249 252 254 257 260 263 266 269 271 274 277 281 285
246 245 244 243 242 243 244 245 245 245 245 245 245 242 239 239 237 234 231 226 221 219 219 220 222 224 224 223 225 227 228 231 239 240 235 233 236 238 237 240 244 245 248 252 254 252 249 250 254 254 252 251 250 249 249 247 245 243 242 242 240 240 239 238 238 239 239 240 241 242 244 246 248 249 252 254 258 261 264 267 270 273 276 280 283 286 288
248 245 243 243 242 242 242 244 246 247 247 249 249 246 243 242 238 234 230 225 219 216 216 218 220 220 218 219 221 223 223 226 233 235 233 231 232 232 232 235 240 242 246 251 255 255 249 246 248 252 252 250 247 245 244 243 241 240 239 240 240 239 239 238 238 239 241 242 244 246 248 250 251 254 257 260 264 267 270 273 276 278 280 283 286 288 288
252 244 241 240 240 240 240 241 243 245 246 247 248 247 246 245 242 237 231 224 218 214 214 218 220 219 218 219 221 221 225 230 233 230 226 226 229 229 229 233 238 242 247 253 257 254 246 239 238 241 244 245 243 241 239 237 236 235 235 235 236 236 236 237 239 241 243 245 246 247 250 252 254 258 261 265 268 271 274 278 281 283 283 283 285 285 284
261 251 245 241 239 239 240 241 242 244 246 247 248 248 246 245 243 238 231 223 216 212 213 219 220 218 219 222 222 220 223 227 228 227 226 226 224 222 222 227 233 237 241 246 248 243 235 232 232 233 234 235 235 233 233 231 229 227 228 229 230 231 233 236 239 241 243 244 246 248 251 254 257 260 263 266 269 272 275 278 280 280 280 281 281 281 281
277 263 253 245 240 239 240 242 245 247 249 249 250 250 248 244 240 233 226 219 213 211 213 218 219 216 216 219 216 211 209 210 211 217 224 227 225 222 222 225 228 230 231 233 234 231 228 227 228 229 230 230 229 227 226 227 225 224 226 228 229 231 234 236 239 242 244 246 249 252 255 258 261 264 266 268 270 271 272 273 274 274 276 280 282 283 284
288 271 256 243 236 236 236 238 240 242 244 245 247 247 246 243 237 229 219 213 210 210 211 213 213 213 215 214 208 202 198 193 189 192 201 209 215 218 222 224 225 224 223 223 224 225 226 226 226 226 228 230 228 226 225 227 228 228 229 230 231 233 235 237 240 243 247 250 253 256 259 262 263 265 267 268 270 270 271 272 274 276 279 283 286 286 286
326 291 260 235 234 237 237 234 231 229 230 234 239 239 236 232 227 221 214 208 205 206 208 206 204 207 212 212 208 205 203 200 193 183 173 172 185 200 211 217 219 218 217 217 220 222 224 224 225 225 225 225 227 228 229 231 233 234 236 238 238 237 238 241 244 247 250 253 254 256 258 261 262 263 265 266 268 270 272 274 276 278 280 282 284 285 284
26 24 35 270 245 242 235 232 230 226 223 225 231 231 224 217 212 211 209 204 202 203 205 203 201 203 207 208 207 209 211 211 211 208 195 179 177 187 200 210 214 214 216 217 219 221 222 221 220 221 222 224 226 228 229 231 233 235 240 244 245 243 242 243 245 248 250 252 252 254 257 260 262 263 265 267 270 272 275 277 278 279 280 281 281 282 282
45 44 40 30 11 284 230 224 223 219 215 214 213 208 203 202 204 204 201 198 200 203 205 203 202 204 207 205 204 206 207 208 211 214 214 212 210 207 207 209 210 212 214 217 219 221 223 222 221 221 222 224 227 229 230 233 235 237 240 244 247 246 244 243 244 247 249 251 253 255 257 260 262 264 266 267 269 271 273 275 276 276 276 277 277 277 277
75 58 41 40 51 61 88 204 209 203 198 197 196 192 188 191 194 192 190 192 199 206 209 210 209 207 207 207 207 206 206 206 206 207 210 213 213 209 205 205 206 209 213 217 219 221 223 224 225 226 225 226 227 229 231 234 237 238 241 244 247 249 249 247 248 250 252 254 256 257 258 260 261 263 265 268 269 271 272 273 274 274 274 275 275 275 275
70 77 72 51 57 71 84 122 167 177 182 189 189 185 180 178 178 178 181 187 194 199 204 208 210 207 207 209 208 205 205 205 203 200 200 201 200 198 200 202 204 205 209 213 216 218 219 219 220 222 223 226 230 232 233 235 237 239 241 244 248 251 252 252 252 253 255 257 258 259 260 262 263 265 267 269 270 271 272 273 273 274 274 275 275 274 274
55 68 83 94 99 99 97 108 141 159 170 178 177 174 172 173 176 179 186 193 195 193 196 204 209 207 205 207 207 204 203 203 201 198 198 198 197 198 202 204 204 204 205 207 211 215 217 219 220 222 225 228 232 234 237 238 239 240 242 244 247 249 251 252 253 253 255 257 259 261 263 265 266 268 270 271 272 273 273 273 274 274 273 273 274 273 273
41 53 68 80 90 104 116 123 137 149 153 150 154 161 165 167 171 175 182 193 198 197 198 207 216 214 208 208 210 207 203 200 199 198 198 198 200 202 204 204 206 206 203 202 205 208 211 215 218 220 222 225 229 232 235 237 238 240 241 242 244 247 248 250 251 252 254 257 260 263 266 268 270 273 274 275 277 278 278 278 279 278 276 275 274 274 274
34 41 50 58 68 83 98 106 117 132 141 137 139 153 164 168 170 172 175 182 192 198 198 200 206 208 207 208 211 208 202 197 195 195 195 195 197 200 202 201 203 202 199 198 201 203 206 211 214 217 219 222 224 228 233 236 239 242 244 245 248 250 251 253 255 256 258 261 263 266 269 272 274 276 278 279 280 281 281 281 281 282 282 282 281 281 280
29 35 40 44 50 58 69 79 93 111 125 129 136 151 164 168 169 169 167 169 179 190 192 186 185 189 196 203 205 201 195 191 190 191 192 192 192 193 192 192 194 196 196 199 202 206 210 214 216 217 220 222 224 228 233 237 241 245 248 250 252 255 256 259 261 262 264 267 268 269 271 273 274 276 278 280 281 281 282 281 281 282 284 284 282 279 276
23 28 34 38 43 47 52 59 70 84 98 112 126 142 151 152 155 159 159 159 167 176 178 175 174 177 184 191 194 193 192 190 188 188 189 189 189 188 186 187 192 195 198 203 208 213 217 221 222 222 223 226 228 231 235 239 242 246 248 249 253 256 258 261 263 265 267 269 270 271 272 273 274 276 279 281 283 284 284 285 286 286 286 284 281 278 276
21 23 28 33 37 40 43 49 57 64 74 90 107 118 124 128 133 137 139 142 149 154 156 155 156 160 166 173 178 182 185 186 185 183 183 185 187 188 189 192 196 198 200 203 209 215 219 222 225 225 227 229 231 233 235 238 242 245 247 249 252 256 259 261 264 266 268 269 271 273 274 274 275 277 277 278 279 279 279 279 280 282 283 285 285 285 285
19 19 23 29 34 36 38 42 50 56 61 70 82 90 96 103 110 113 116 122 129 134 137 137 136 137 141 147 153 160 166 171 174 176 178 181 184 188 191 192 193 194 195 198 203 208 212 215 218 221 226 230 233 234 235 237 240 243 246 249 251 254 257 259 261 264 265 267 269 271 273 274 274 274 274 273 273 274 275 276 277 278 279 282 284 286 288
20 19 19 22 28 33 36 38 43 50 54 58 64 71 76 83 91 98 104 109 114 120 126 130 130 128 126 124 126 132 138 143 148 154 159 162 168 176 180 180 181 186 192 197 202 207 212 218 221 223 226 230 232 233 234 236 238 240 243 245 248 251 253 255 256 258 261 263 265 266 269 271 271 271 272 273 274 275 278 280 280 279 278 277 279 282 286
10 10 13 18 23 29 33 35 39 45 47 49 55 63 65 67 73 81 86 91 97 103 107 110 112 115 115 113 111 112 114 117 120 124 130 137 147 157 164 172 184 197 207 213 217 220 223 227 231 234 235 234 235 236 237 238 240 242 244 246 249 251 253 256 258 259 260 262 263 264 265 268 270 271 273 274 276 278 280 281 282 282 281 281 283 285 287
360 353 356 7 17 23 26 26 30 37 40 41 46 53 56 56 62 68 70 71 75 80 84 87 88 90 94 96 97 98 99 100 101 102 104 108 117 131 155 196 218 226 229 230 230 232 235 237 238 241 244 243 242 243 244 244 245 247 249 250 253 255 256 259 262 263 262 263 264 265 267 269 272 274 275 277 278 279 280 280 281 281 282 284 286 287 287
355 349 346 351 357 2 8 13 18 26 32 33 33 35 36 39 46 53 55 58 61 63 61 62 66 67 69 72 77 81 83 85 85 84 81 71 52 12 293 271 263 257 252 246 241 241 243 243 242 243 246 246 246 247 249 250 252 253 254 256 259 261 262 263 265 267 268 268 270 270 272 272 273 274 276 278 279 280 281 283 283 283 284 285 286 284 283
350 347 343 343 345 346 349 351 353 359 7 10 8 8 10 14 21 27 27 29 35 40 37 37 38 37 33 30 27 24 25 24 5 336 321 312 306 299 291 286 284 281 278 274 271 267 264 262 261 261 260 259 258 257 256 257 258 259 260 262 265 266 268 270 270 271 272 273 274 275 275 275 275 276 277 279 280 282 284 285 285 286 287 289 288 286 284
Height
3025 3028 3029 3029 3030 3031 3034 3036 3038 3040 3044 3047 3049 3051 3054 3057 3058 3059 3062 3064 3064 3066 3069 3071 3073 3075 3077 3078 3080 3081 3081 3082 3085 3089 3091 3093 3096 3099 3101 3104 3106 3108 3110 3112 3113 3115 3117 3119 3121 3122 3124 3126 3127 3129 3130 3132 3134 3135 3137 3139 3140 3142 3144 3146 3148 3150 3153 3155 3156 3158 3160 3162 3164 3165 3167 3169 3171 3172 3174 3175 3178 3179 3180 3181 3183 3184 3185
3025 3027 3029 3030 3031 3030 3030 3033 3035 3038 3041 3045 3048 3051 3053 3056 3058 3060 3062 3064 3065 3067 3070 3072 3074 3076 3076 3078 3080 3080 3081 3084 3087 3091 3094 3096 3097 3099 3102 3104 3105 3107 3109 3110 3111 3113 3115 3117 3119 3120 3122 3124 3125 3127 3128 3130 3132 3133 3135 3136 3138 3139 3141 3143 3146 3149 3151 3153 3155 3156 3158 3159 3161 3163 3165 3167 3169 3170 3171 3173 3175 3177 3178 3179 3179 3181 3182
3024 3026 3028 3030 3031 3031 3030 3029 3031 3035 3039 3042 3046 3050 3052 3055 3058 3060 3062 3064 3066 3068 3069 3070 3071 3073 3074 3076 3078 3080 3083 3086 3089 3091 3095 3097 3098 3100 3101 3103 3104 3105 3107 3108 3110 3112 3114 3115 3117 3119 3120 3122 3124 3125 3126 3128 3130 3131 3133 3133 3135 3137 3138 3140 3143 3146 3148 3150 3152 3154 3156 3158 3159 3161 3163 3165 3166 3167 3169 3170 3171 3173 3175 3177 3177 3177 3179
3022 3024 3027 3028 3030 3032 3030 3027 3028 3031 3035 3039 3043 3047 3050 3052 3055 3058 3060 3062 3065 3067 3067 3068 3070 3072 3073 3074 3077 3081 3084 3087 3089 3092 3094 3095 3097 3099 3101 3102 3102 3104 3106 3108 3109 3111 3112 3113 3115 3117 3119 3120 3122 3123 3125 3126 3128 3129 3131 3132 3132 3134 3136 3137 3139 3142 3145 3148 3150 3151 3154 3155 3157 3159 3161 3162 3164 3165 3166 3167 3169 3170 3172 3174 3175 3175 3176
3020 3023 3026 3028 3031 3033 3030 3027 3029 3032 3034 3037 3041 3045 3049 3051 3054 3057 3058 3061 3065 3066 3066 3069 3071 3072 3074 3076 3079 3082 3084 3086 3089 3091 3092 3094 3097 3099 3100 3101 3102 3104 3106 3108 3109 3110 3111 3112 3113 3115 3116 3118 3120 3121 3123 3124 3126 3127 3129 3130 3130 3131 3133 3135 3136 3138 3141 3144 3147 3149 3151 3153 3155 3157 3158 3160 3161 3162 3164 3165 3166 3167 3169 3170 3172 3173 3173
3020 3021 3025 3027 3028 3029 3028 3029 3032 3034 3035 3036 3038 3042 3047 3050 3053 3056 3057 3061 3063 3063 3065 3069 3071 3072 3076 3078 3080 3082 3084 3087 3089 3091 3093 3095 3097 3098 3099 3101 3102 3103 3105 3106 3107 3108 3109 3110 3112 3113 3114 3116 3118 3119 3121 3123 3124 3125 3127 3128 3128 3129 3131 3132 3134 3135 3137 3140 3143 3146 3148 3151 3153 3154 3155 3157 3158 3160 3161 3163 3164 3165 3166 3167 3169 3170 3171
3022 3023 3026 3026 3023 3025 3029 3032 3033 3034 3035 3034 3035 3038 3043 3048 3051 3053 3056 3059 3061 3063 3066 3069 3071 3073 3075 3077 3079 3081 3084 3086 3088 3091 3093 3095 3096 3098 3099 3099 3099 3100 3102 3103 3103 3104 3106 3108 3110 3111 3112 3114 3115 3117 3119 3121 3122 3124 3125 3126 3127 3127 3129 3130 3132 3133 3134 3136 3139 3142 3145 3147 3149 3150 3152 3154 3156 3157 3158 3159 3160 3162 3163 3164 3165 3166 3168
3025 3025 3025 3024 3023 3026 3032 3033 3032 3034 3035 3035 3036 3038 3041 3045 3049 3051 3054 3058 3061 3064 3066 3069 3071 3072 3074 3075 3077 3079 3082 3085 3088 3091 3093 3093 3094 3096 3095 3095 3096 3098 3100 3101 3102 3103 3105 3106 3108 3109 3111 3112 3114 3115 3117 3119 3120 3122 3123 3124 3125 3126 3127 3128 3129 3131 3132 3134 3136 3138 3141 3143 3145 3147 3149 3150 3152 3154 3155 3156 3157 3159 3160 3161 3162 3163 3164
3027 3025 3025 3026 3026 3027 3030 3032 3032 3034 3036 3037 3039 3040 3042 3045 3049 3051 3054 3058 3062 3065 3068 3069 3069 3070 3072 3074 3077 3079 3083 3085 3087 3089 3089 3089 3089 3090 3090 3091 3094 3097 3099 3100 3101 3103 3104 3105 3107 3108 3109 3110 3112 3113 3114 3116 3118 3119 3121 3122 3123 3123 3125 3126 3127 3129 3130 3132 3133 3135 3137 3139 3141 3143 3145 3147 3149 3151 3152 3153 3154 3155 3156 3157 3158 3159 3160
3028 3027 3026 3025 3025 3026 3030 3032 3032 3034 3036 3037 3039 3042 3044 3047 3049 3052 3056 3059 3061 3063 3066 3067 3067 3067 3070 3074 3078 3080 3081 3082 3082 3083 3084 3084 3086 3088 3088 3089 3092 3095 3097 3099 3100 3101 3102 3103 3104 3106 3107 3108 3109 3110 3112 3114 3115 3117 3118 3120 3121 3121 3122 3124 3125 3126 3128 3129 3131 3133 3134 3136 3138 3140 3142 3144 3145 3147 3148 3150 3151 3152 3153 3154 3155 3156 3157
3029 3029 3026 3023 3024 3027 3031 3032 3033 3034 3035 3037 3040 3042 3043 3043 3045 3050 3055 3058 3059 3060 3062 3063 3064 3066 3070 3075 3076 3076 3077 3077 3078 3080 3082 3083 3085 3087 3087 3087 3090 3094 3095 3095 3096 3097 3099 3100 3102 3103 3105 3106 3107 3109 3110 3111 3113 3114 3116 3117 3118 3119 3120 3121 3122 3124 3125 3127 3129 3130 3132 3133 3135 3137 3138 3140 3142 3143 3144 3146 3147 3148 3149 3150 3151 3152 3153
3030 3030 3028 3025 3025 3027 3028 3029 3033 3034 3035 3038 3040 3040 3039 3041 3043 3047 3051 3054 3057 3058 3058 3060 3063 3066 3070 3073 3071 3070 3072 3073 3074 3077 3080 3081 3083 3084 3084 3085 3089 3091 3091 3092 3093 3094 3096 3098 3100 3101 3102 3104 3105 3107 3108 3109 3110 3112 3113 3114 3115 3116 3117 3118 3120 3121 3122 3124 3125 3127 3129 3131 3132 3134 3135 3137 3138 3139 3140 3142 3143 3144 3145 3146 3147 3147 3149
3031 3030 3028 3025 3024 3025 3025 3026 3028 3030 3033 3037 3038 3037 3039 3041 3042 3044 3047 3049 3050 3052 3053 3057 3061 3064 3066 3066 3065 3066 3069 3071 3072 3075 3077 3078 3080 3082 3082 3083 3086 3087 3087 3089 3090 3091 3093 3095 3096 3097 3099 3101 3103 3104 3106 3107 3108 3109 3110 3110 3112 3113 3114 3116 3117 3118 3120 3121 3122 3124 3126 3128 3129 3130 3132 3133 3135 3136 3137 3138 3139 3140 3141 3142 3143 3143 3144
3031 3030 3027 3024 3024 3025 3025 3025 3024 3025 3029 3033 3034 3036 3039 3040 3040 3042 3044 3045 3046 3048 3051 3054 3057 3058 3060 3062 3063 3065 3068 3069 3071 3072 3074 3075 3077 3079 3080 3080 3081 3083 3084 3086 3087 3088 3090 3091 3093 3095 3097 3098 3100 3102 3103 3104 3105 3106 3106 3108 3109 3110 3112 3113 3114 3115 3117 3118 3119 3120 3122 3124 3125 3127 3128 3130 3131 3132 3133 3134 3135 3136 3137 3138 3139 3139 3140
3031 3029 3028 3026 3026 3027 3027 3026 3027 3027 3029 3031 3033 3035 3036 3038 3039 3041 3041 3042 3044 3047 3049 3051 3053 3056 3057 3059 3061 3064 3065 3067 3068 3069 3070 3072 3074 3076 3077 3077 3078 3080 3082 3083 3084 3085 3086 3088 3090 3092 3093 3095 3097 3098 3099 3101 3102 3103 3104 3105 3106 3107 3109 3110 3111 3112 3113 3115 3116 3117 3118 3119 3121 3123 3125 3125 3126 3128 3128 3129 3130 3132 3133 3134 3134 3135 3136
3032 3030 3028 3027 3027 3029 3029 3028 3028 3029 3030 3032 3034 3034 3034 3035 3038 3039 3039 3040 3043 3045 3046 3049 3052 3054 3055 3056 3059 3061 3062 3063 3065 3066 3067 3069 3071 3072 3074 3074 3075 3077 3078 3079 3080 3082 3084 3086 3088 3088 3090 3091 3093 3094 3096 3097 3099 3100 3101 3102 3103 3105 3106 3107 3108 3109 3110 3111 3112 3113 3114 3115 3117 3119 3120 3121 3122 3124 3125 3126 3127 3128 3129 3130 3130 3131 3132
3029 3028 3027 3027 3029 3030 3029 3028 3028 3029 3031 3032 3033 3033 3032 3033 3035 3037 3038 3040 3042 3044 3046 3048 3050 3052 3053 3055 3057 3059 3060 3061 3062 3063 3065 3066 3067 3069 3070 3070 3072 3074 3075 3076 3078 3080 3081 3083 3085 3085 3086 3088 3089 3091 3093 3094 3096 3097 3098 3099 3100 3101 3102 3103 3104 3105 3106 3107 3109 3110 3111 3112 3113 3114 3116 3117 3119 3120 3121 3122 3123 3124 3125 3125 3126 3127 3127
3026 3026 3026 3028 3029 3029 3029 3029 3030 3030 3030 3031 3032 3031 3031 3032 3033 3035 3037 3039 3041 3043 3045 3047 3049 3050 3052 3053 3055 3056 3058 3059 3060 3061 3062 3063 3064 3065 3066 3067 3069 3070 3072 3073 3075 3077 3078 3080 3081 3082 3083 3084 3086 3088 3089 3090 3092 3093 3094 3096 3097 3098 3099 3100 3101 3102 3103 3104 3105 3106 3107 3108 3109 3110 3112 3113 3115 3116 3117 3118 3119 3120 3121 3121 3122 3123 3124
3027 3026 3026 3027 3027 3027 3029 3030 3030 3030 3031 3031 3030 3030 3030 3032 3034 3035 3037 3039 3041 3042 3044 3046 3048 3049 3050 3052 3053 3054 3055 3056 3057 3059 3060 3061 3062 3062 3063 3064 3066 3067 3069 3070 3072 3074 3075 3077 3078 3079 3080 3082 3083 3085 3086 3087 3089 3090 3091 3092 3093 3095 3096 3097 3098 3099 3100 3100 3101 3102 3103 3104 3105 3107 3108 3109 3111 3112 3113 3114 3115 3116 3117 3118 3119 3119 3120
3026 3026 3026 3025 3024 3024 3026 3027 3027 3029 3031 3029 3028 3028 3029 3032 3033 3034 3036 3039 3040 3041 3043 3045 3046 3047 3049 3050 3051 3052 3053 3054 3055 3056 3058 3059 3059 3060 3061 3062 3063 3064 3066 3067 3069 3070 3072 3074 3075 3076 3078 3079 3080 3082 3083 3084 3085 3087 3088 3089 3090 3092 3093 3094 3095 3096 3097 3098 3098 3099 3100 3101 3102 3103 3104 3105 3107 3108 3109 3110 3111 3112 3113 3114 3115 3115 3115
3024 3025 3025 3025 3024 3024 3025 3026 3027 3029 3028 3026 3026 3027 3028 3030 3032 3033 3034 3037 3038 3039 3041 3043 3044 3046 3047 3048 3049 3050 3051 3052 3053 3054 3055 3056 3057 3058 3058 3059 3060 3061 3063 3064 3065 3067 3069 3071 3072 3073 3074 3076 3077 3078 3080 3081 3082 3084 3085 3086 3087 3088 3089 3090 3091 3093 3094 3095 3095 3096 3097 3099 3099 3100 3101 3102 3103 3104 3105 3106 3108 3109 3109 3110 3110 3110 3111
3023 3024 3025 3025 3025 3024 3025 3026 3026 3025 3023 3022 3023 3025 3026 3028 3029 3030 3032 3034 3036 3037 3040 3041 3043 3044 3045 3046 3048 3049 3049 3050 3051 3052 3053 3054 3054 3055 3056 3056 3057 3059 3060 3061 3062 3064 3066 3067 3068 3069 3070 3072 3073 3075 3076 3078 3079 3080 3082 3083 3084 3085 3086 3087 3088 3089 3090 3091 3092 3094 3094 3095 3096 3098 3098 3099 3100 3100 3101 3103 3104 3105 3105 3105 3106 3106 3106
3022 3022 3023 3023 3023 3022 3023 3024 3022 3021 3019 3020 3021 3023 3025 3025 3026 3028 3030 3031 3033 3035 3037 3039 3040 3041 3043 3044 3046 3047 3048 3049 3049 3050 3051 3052 3053 3053 3054 3054 3054 3055 3056 3058 3059 3060 3062 3063 3064 3065 3067 3068 3070 3071 3073 3075 3076 3077 3079 3079 3080 3081 3082 3083 3084 3086 3087 3088 3090 3091 3091 3092 3094 3095 3096 3096 3097 3097 3098 3099 3100 3100 3101 3101 3102 3102 3102
3019 3019 3019 3019 3018 3017 3018 3018 3018 3017 3017 3017 3018 3021 3023 3025 3025 3027 3028 3029 3030 3032 3034 3036 3037 3039 3040 3042 3043 3045 3046 3047 3048 3049 3050 3050 3051 3051 3052 3052 3052 3052 3053 3054 3055 3057 3058 3059 3060 3062 3064 3065 3067 3068 3070 3072 3073 3074 3076 3076 3076 3078 3079 3080 3082 3083 3084 3085 3086 3088 3089 3090 3091 3092 3092 3093 3094 3094 3095 3096 3095 3096 3097 3097 3097 3098 3098
3015 3015 3015 3015 3013 3012 3012 3012 3013 3014 3015 3015 3016 3019 3022 3025 3025 3026 3026 3027 3029 3029 3030 3032 3035 3037 3038 3039 3041 3042 3043 3044 3046 3047 3048 3048 3048 3049 3049 3049 3050 3050 3050 3051 3052 3053 3055 3056 3057 3059 3060 3062 3063 3065 3067 3069 3070 3071 3072 3073 3073 3075 3076 3078 3079 3080 3081 3082 3083 3085 3086 3087 3087 3088 3089 3090 3090 3091 3092 3092 3091 3092 3092 3093 3093 3094 3094
3008 3008 3009 3009 3007 3008 3009 3009 3010 3011 3013 3014 3015 3016 3019 3021 3023 3023 3023 3024 3026 3027 3028 3030 3033 3035 3036 3037 3038 3039 3040 3041 3043 3044 3046 3046 3045 3046 3047 3047 3047 3047 3047 3047 3048 3050 3051 3053 3054 3056 3057 3058 3059 3061 3064 3066 3067 3068 3069 3069 3071 3072 3074 3075 3076 3077 3078 3079 3081 3082 3083 3084 3084 3085 3086 3086 3086 3088 3088 3088 3088 3088 3088 3089 3089 3090 3090
3002 3002 3002 3001 3000 3002 3004 3005 3006 3008 3010 3010 3011 3012 3014 3015 3016 3017 3018 3021 3023 3026 3027 3028 3030 3032 3034 3034 3036 3037 3038 3038 3040 3041 3043 3043 3043 3043 3044 3044 3045 3044 3044 3044 3045 3047 3048 3049 3051 3052 3053 3055 3056 3058 3060 3062 3064 3064 3065 3066 3068 3070 3071 3072 3073 3075 3076 3077 3078 3079 3079 3080 3081 3082 3083 3083 3083 3084 3084 3084 3084 3084 3084 3085 3086 3086 3085
2995 2996 2996 2994 2993 2995 2998 3000 3001 3002 3003 3004 3005 3007 3008 3009 3010 3011 3013 3017 3020 3022 3024 3026 3027 3029 3031 3032 3033 3034 3035 3036 3038 3039 3040 3041 3041 3041 3041 3041 3042 3041 3041 3041 3042 3043 3045 3046 3048 3049 3050 3052 3053 3055 3057 3059 3060 3061 3062 3064 3066 3067 3068 3070 3071 3072 3073 3074 3075 3075 3076 3077 3078 3079 3079 3080 3080 3080 3080 3080 3080 3080 3081 3081 3082 3081 3080
2988 2990 2990 2989 2989 2990 2992 2993 2994 2995 2997 2998 3000 3001 3002 3003 3004 3005 3008 3012 3015 3017 3020 3023 3025 3026 3027 3029 3030 3030 3032 3034 3034 3035 3036 3038 3038 3039 3039 3038 3038 3038 3038 3039 3040 3041 3042 3043 3044 3046 3047 3049 3050 3052 3054 3056 3058 3059 3060 3061 3063 3064 3065 3066 3067 3069 3070 3071 3071 3072 3073 3074 3074 3075 3075 3076 3076 3076 3076 3076 3076 3076 3076 3076 3077 3076 3076
2983 2983 2983 2984 2985 2986 2987 2987 2988 2990 2991 2993 2994 2995 2997 2998 2998 3000 3003 3007 3010 3013 3016 3019 3021 3022 3024 3025 3026 3027 3029 3031 3031 3031 3033 3035 3036 3036 3036 3036 3035 3036 3036 3037 3038 3039 3040 3041 3041 3043 3044 3046 3048 3049 3051 3053 3054 3056 3057 3058 3059 3060 3062 3063 3064 3065 3066 3067 3067 3068 3069 3070 3070 3071 3071 3072 3072 3072 3072 3072 3072 3072 3072 3072 3072 3071 3071
2975 2975 2975 2976 2978 2979 2980 2981 2983 2984 2986 2987 2988 2990 2991 2993 2993 2995 2999 3002 3005 3009 3012 3015 3017 3019 3020 3021 3023 3024 3026 3028 3028 3029 3030 3032 3033 3033 3033 3033 3033 3033 3034 3034 3036 3037 3038 3039 3040 3041 3042 3044 3045 3046 3048 3050 3051 3053 3054 3055 3056 3057 3058 3059 3060 3060 3061 3062 3063 3064 3065 3065 3066 3066 3067 3067 3067 3067 3067 3067 3067 3066 3067 3067 3067 3066 3066
2968 2967 2968 2969 2970 2972 2973 2975 2976 2978 2980 2981 2983 2984 2986 2988 2989 2991 2994 2997 3001 3005 3010 3012 3014 3016 3017 3018 3020 3022 3024 3025 3026 3026 3027 3028 3029 3030 3030 3029 3030 3031 3032 3033 3034 3035 3036 3037 3038 3039 3040 3042 3043 3044 3046 3047 3049 3050 3051 3052 3053 3054 3054 3055 3055 3056 3057 3059 3059 3060 3060 3061 3061 3062 3063 3063 3063 3063 3062 3062 3062 3061 3062 3063 3063 3063 3062
2962 2961 2962 2963 2964 2966 2967 2969 2971 2973 2974 2976 2978 2980 2982 2984 2986 2988 2991 2994 2998 3003 3006 3009 3011 3013 3015 3017 3019 3021 3022 3022 3023 3023 3023 3025 3026 3026 3026 3026 3026 3028 3030 3030 3031 3033 3034 3035 3036 3037 3038 3040 3041 3042 3044 3044 3045 3046 3047 3048 3049 3050 3051 3051 3052 3054 3054 3055 3056 3056 3057 3057 3057 3058 3059 3059 3058 3058 3058 3059 3059 3058 3058 3059 3060 3059 3058
2958 2957 2958 2959 2960 2961 2962 2965 2967 2968 2970 2972 2973 2975 2977 2980 2982 2984 2987 2991 2995 2999 3003 3006 3008 3011 3013 3014 3016 3018 3019 3020 3020 3020 3020 3021 3022 3022 3023 3023 3023 3025 3027 3028 3029 3031 3032 3033 3034 3035 3036 3038 3039 3041 3041 3042 3042 3043 3044 3045 3046 3047 3048 3048 3049 3050 3051 3052 3052 3052 3052 3053 3053 3054 3054 3054 3055 3055 3055 3056 3057 3056 3055 3055 3055 3054 3053
2954 2953 2954 2955 2956 2957 2959 2961 2962 2964 2965 2967 2969 2970 2973 2975 2978 2981 2984 2987 2992 2997 3001 3004 3007 3009 3010 3011 3012 3014 3016 3017 3017 3016 3016 3016 3016 3017 3018 3019 3021 3023 3025 3026 3027 3029 3030 3031 3032 3033 3034 3036 3037 3038 3038 3039 3039 3040 3040 3041 3042 3043 3044 3045 3046 3046 3047 3048 3048 3048 3049 3050 3050 3051 3051 3052 3051 3052 3052 3053 3053 3052 3051 3050 3049 3049 3048
2952 2951 2951 2952 2953 2954 2956 2957 2958 2960 2961 2963 2964 2966 2968 2971 2974 2978 2981 2985 2990 2995 2998 3001 3004 3007 3007 3008 3008 3010 3012 3013 3012 3012 3011 3011 3011 3012 3014 3016 3019 3021 3023 3024 3026 3027 3028 3030 3031 3032 3033 3033 3034 3035 3035 3036 3037 3037 3037 3038 3040 3041 3042 3042 3043 3044 3044 3045 3046 3046 3046 3047 3047 3047 3048 3047 3047 3047 3047 3047 3047 3046 3046 3045 3045 3045 3045
2953 2951 2951 2951 2951 2952 2952 2954 2955 2957 2959 2960 2961 2963 2965 2968 2971 2975 2979 2984 2989 2993 2996 2998 3001 3003 3003 3004 3005 3007 3009 3009 3009 3009 3009 3009 3009 3010 3012 3015 3018 3020 3022 3024 3025 3026 3027 3028 3029 3030 3031 3031 3032 3033 3033 3034 3034 3035 3035 3036 3037 3039 3040 3041 3041 3041 3041 3042 3042 3042 3042 3043 3043 3043 3043 3043 3043 3043 3043 3042 3042 3042 3042 3041 3042 3042 3042
2956 2954 2953 2952 2951 2950 2950 2952 2953 2955 2956 2958 2960 2961 2963 2967 2970 2974 2978 2982 2987 2990 2993 2995 2998 2999 3000 3001 3002 3004 3005 3006 3007 3008 3008 3009 3010 3011 3013 3015 3017 3019 3021 3022 3023 3024 3025 3026 3026 3027 3028 3029 3030 3031 3031 3031 3032 3033 3033 3034 3034 3035 3037 3038 3038 3038 3038 3038 3038 3038 3039 3039 3039 3039 3039 3039 3039 3039 3039 3039 3038 3038 3038 3038 3038 3039 3038
2957 2956 2955 2954 2952 2950 2950 2951 2952 2953 2954 2956 2958 2960 2962 2966 2970 2974 2978 2982 2986 2989 2991 2993 2995 2997 2997 2998 3000 3002 3003 3004 3005 3006 3008 3009 3010 3012 3014 3015 3016 3018 3019 3020 3021 3022 3023 3024 3025 3026 3027 3027 3028 3028 3029 3029 3030 3030 3031 3031 3031 3032 3033 3034 3035 3035 3035 3035 3035 3035 3035 3035 3036 3036 3036 3036 3036 3036 3036 3035 3035 3035 3034 3034 3035 3035 3034
2960 2958 2957 2956 2955 2953 2952 2953 2954 2955 2955 2955 2957 2960 2963 2966 2969 2974 2978 2981 2984 2986 2988 2990 2992 2994 2995 2996 2998 2999 3000 3001 3003 3005 3006 3008 3010 3011 3013 3014 3015 3016 3017 3018 3019 3020 3021 3022 3023 3024 3025 3025 3026 3026 3026 3027 3027 3028 3028 3029 3029 3030 3030 3031 3031 3032 3032 3032 3032 3032 3032 3032 3032 3032 3032 3032 3032 3032 3032 3032 3032 3031 3031 3031 3031 3031 3030
2966 2963 2959 2957 2957 2956 2956 2955 2956 2957 2956 2957 2958 2961 2964 2965 2968 2972 2976 2978 2980 2982 2985 2987 2989 2991 2993 2994 2996 2997 2998 3000 3001 3003 3005 3007 3009 3010 3011 3012 3014 3015 3015 3017 3018 3018 3019 3020 3021 3022 3023 3024 3024 3025 3025 3025 3026 3026 3027 3027 3027 3027 3028 3028 3028 3029 3029 3029 3029 3029 3029 3029 3029 3029 3030 3030 3029 3029 3029 3029 3028 3028 3027 3027 3027 3027 3026
2975 2971 2966 2962 2960 2959 2958 2958 2959 2959 2959 2959 2961 2964 2966 2966 2967 2970 2973 2976 2978 2981 2984 2986 2988 2990 2991 2993 2995 2997 2998 2999 3001 3002 3004 3006 3007 3009 3010 3011 3012 3013 3014 3015 3016 3017 3018 3019 3020 3020 3021 3022 3022 3023 3024 3024 3024 3025 3025 3025 3025 3025 3025 3026 3026 3026 3026 3027 3027 3027 3027 3027 3027 3027 3027 3027 3027 3027 3026 3026 3025 3025 3025 3024 3024 3023 3022
2981 2978 2974 2971 2968 2965 2962 2962 2961 2961 2961 2962 2964 2967 2969 2970 2969 2970 2972 2975 2977 2981 2984 2986 2987 2988 2990 2992 2994 2996 2997 2999 3000 3001 3003 3004 3006 3008 3009 3010 3011 3012 3013 3014 3015 3016 3017 3017 3018 3019 3019 3020 3020 3021 3022 3022 3022 3023 3023 3023 3023 3024 3024 3024 3024 3024 3025 3025 3025 3025 3025 3025 3025 3025 3025 3025 3025 3024 3024 3023 3023 3023 3022 3022 3021 3020 3019
2986 2983 2980 2978 2976 2973 2971 2968 2965 2963 2963 2964 2966 2968 2969 2970 2971 2972 2974 2975 2976 2979 2982 2983 2984 2986 2988 2990 2993 2995 2996 2997 2999 3000 3001 3003 3004 3006 3007 3008 3009 3010 3011 3012 3013 3014 3015 3016 3016 3017 3017 3018 3019 3019 3020 3020 3021 3021 3021 3022 3022 3022 3022 3023 3023 3023 3023 3023 3023 3023 3023 3023 3023 3023 3023 3023 3023 3022 3022 3022 3021 3021 3020 3019 3019 3018 3018
2990 2988 2986 2984 2982 2980 2978 2975 2972 2970 2969 2969 2969 2970 2971 2972 2973 2975 2976 2976 2976 2979 2981 2982 2982 2984 2986 2988 2991 2993 2994 2995 2997 2998 2999 3001 3002 3003 3005 3006 3007 3008 3010 3011 3012 3013 3013 3014 3015 3015 3016 3016 3017 3018 3018 3019 3019 3019 3020 3020 3020 3021 3021 3021 3021 3021 3021 3022 3022 3022 3022 3022 3022 3022 3021 3021 3021 3020 3020 3020 3020 3019 3018 3018 3017 3017 3016
2995 2992 2991 2989 2987 2985 2983 2981 2980 2979 2977 2975 2973 2973 2975 2976 2977 2978 2978 2978 2978 2979 2982 2983 2984 2985 2986 2988 2990 2991 2992 2994 2995 2996 2998 2999 3001 3002 3003 3004 3006 3007 3008 3009 3010 3011 3012 3013 3013 3014 3014 3015 3016 3016 3017 3017 3018 3018 3018 3019 3019 3019 3020 3020 3020 3020 3020 3020 3020 3020 3020 3020 3020 3020 3020 3020 3019 3019 3018 3018 3018 3018 3017 3016 3016 3015 3014
2999 2996 2994 2993 2991 2990 2989 2987 2986 2985 2983 2981 2979 2978 2979 2980 2981 2981 2982 2982 2982 2982 2984 2985 2986 2987 2988 2989 2990 2991 2992 2994 2995 2996 2997 2998 3000 3001 3002 3003 3004 3005 3006 3007 3008 3009 3010 3011 3012 3012 3013 3013 3014 3015 3015 3016 3016 3016 3017 3017 3017 3018 3018 3018 3019 3019 3019 3019 3019 3018 3018 3018 3018 3018 3018 3017 3017 3016 3016 3016 3016 3016 3015 3014 3013 3013 3012
3002 3000 2998 2996 2995 2994 2993 2992 2990 2989 2988 2986 2985 2984 2984 2985 2985 2985 2985 2985 2986 2986 2987 2988 2989 2989 2990 2991 2992 2992 2993 2994 2995 2996 2997 2998 2999 3001 3002 3003 3004 3005 3006 3007 3008 3008 3009 3010 3010 3011 3011 3012 3012 3013 3013 3014 3014 3014 3015 3015 3015 3016 3016 3016 3017 3017 3017 3017 3017 3017 3016 3016 3016 3015 3015 3015 3014 3014 3014 3014 3013 3012 3011 3011 3010 3010 3010
3004 3002 3001 3000 2999 2997 2996 2995 2994 2992 2991 2991 2990 2990 2989 2989 2989 2989 2989 2989 2989 2990 2990 2991 2991 2992 2992 2992 2993 2993 2994 2995 2996 2997 2998 2999 2999 3001 3002 3003 3004 3005 3006 3007 3007 3007 3008 3008 3009 3009 3009 3010 3011 3011 3012 3012 3012 3012 3013 3013 3013 3014 3014 3014 3014 3015 3015 3015 3015 3014 3014 3014 3013 3013 3013 3013 3013 3013 3012 3011 3010 3009 3008 3007 3007 3007 3007
3005 3004 3003 3002 3001 3000 2998 2997 2996 2995 2995 2995 2994 2993 2993 2993 2992 2992 2992 2992 2992 2993 2993 2994 2994 2994 2994 2994 2994 2995 2995 2996 2997 2998 2999 2999 3000 3001 3002 3003 3004 3005 3006 3006 3006 3007 3007 3007 3007 3007 3008 3008 3009 3009 3010 3010 3010 3011 3011 3011 3011 3011 3011 3012 3012 3012 3012 3012 3012 3012 3012 3012 3011 3011 3010 3010 3010 3010 3010 3009 3007 3006 3005 3005 3005 3005 3004
3006 3005 3004 3003 3002 3001 3000 2999 2999 2998 2998 2997 2997 2996 2996 2995 2995 2994 2994 2995 2995 2995 2995 2995 2995 2995 2996 2996 2996 2997 2997 2997 2998 2999 2999 3000 3001 3001 3002 3003 3004 3005 3005 3006 3006 3006 3006 3006 3006 3006 3006 3006 3007 3008 3008 3008 3008 3008 3009 3009 3009 3009 3009 3009 3009 3009 3008 3009 3009 3009 3009 3009 3009 3008 3007 3007 3007 3007 3006 3005 3004 3002 3001 3001 3002 3001 3001
3007 3006 3005 3004 3003 3002 3001 3001 3000 3000 2999 2999 2998 2998 2998 2997 2997 2997 2996 2996 2996 2996 2997 2997 2997 2997 2997 2997 2997 2998 2998 2998 2999 2999 3000 3000 3001 3002 3002 3003 3003 3004 3004 3004 3004 3004 3004 3004 3004 3004 3005 3005 3005 3005 3006 3006 3006 3006 3006 3006 3007 3006 3006 3006 3007 3006 3006 3006 3006 3006 3006 3006 3006 3005 3004 3004 3004 3004 3003 3002 3000 2999 2998 2998 2998 2997 2997